Location: Boornzwaag
(52.9612°N, 5.7364°E)
Time: 20:01:48
(UTC+00:00)

Daily predictions for brighter satellites

Satellite Brightness Start Highest point End
(mag) Time Altitude Azimuth Time Altitude Azimuth Time Altitude Azimuth
Cosmos 1709 Rocket 4.3 19:46:44 10° N 19:52:41 49° ENE 19:58:35 10° SSE
Cosmos 1743 Rocket 4.2 19:50:53 10° NNW 19:55:09 57° W 19:59:24 10° S
SPOT 3 Rocket 3.6 19:50:54 10° SSE 19:56:02 75° ENE 20:01:13 10° NNW
Resurs 1-3 4.1 19:53:53 10° S 19:58:14 64° WSW 20:02:38 10° NNW
Cosmos 1844 4.0 19:53:17 10° S 19:58:41 45° ESE 20:04:04 10° NE
ATLAS 5 CENTAUR R/B 2.3 19:53:24 10° NW 19:58:45 90° SW 20:05:08 10° SE
Landsat 7 3.9 19:54:05 10° SSE 19:58:48 67° ENE 20:03:33 10° N
Cosmos 968 Rocket 3.5 19:54:17 10° S 19:59:28 64° ESE 20:04:40 10° NNE
ATLAS 2AS CENTAUR R/B 3.9 19:56:20 10° NW 20:03:35 42° NNE 20:10:22 10° E
BREEZE M DEB (TANK) 4.3 20:00:57 10° SW 20:04:57 57° SSE 20:18:17 10° E
Cosmos 1486 Rocket 4.1 20:01:46 10° S 20:07:00 61° ESE 20:12:17 10° NNE
Cosmos 1833 Rocket 3.4 20:02:54 10° NNW 20:08:19 43° NE 20:13:41 10° ESE
IGS 5A 3.5 20:05:52 10° SSE 20:10:00 89° WSW 20:14:11 10° NNW
CARTOSAT-1 4.3 20:07:20 10° SE 20:11:21 39° ENE 20:15:23 10° N
Cosmos 2221 4.0 20:08:37 10° SW 20:12:42 40° WNW 20:16:51 10° N
Cosmos 2315 Rocket 4.5 20:06:51 10° SSE 20:12:49 44° E 20:18:49 10° NNE
BREEZE-M R/B 3.4 20:11:33 10° SSW 20:13:18 17° SSE 20:15:03 10° ESE
S3M 4.1 20:07:07 10° S 20:13:28 75° E 20:19:49 10° NNE
Cosmos 1666 4.4 20:11:40 10° NNE 20:14:27 19° ENE 20:17:12 10° ESE
Cosmos 1666 Rocket 3.6 20:10:44 10° N 20:15:10 66° ENE 20:19:31 10° SSE
USA 215 3.8 20:12:47 10° E 20:19:13 63° N 20:25:41 10° WNW
Cosmos 1933 3.3 20:19:41 10° S 20:23:42 71° E 20:27:45 10° NNE
USA 305 3.0 20:19:28 10° WNW 20:23:45 84° N 20:28:03 10° E
USA 245 2.0 20:23:48 13° SSE 20:25:41 58° ENE 20:27:55 10° N
Cosmos 1242 Rocket 2.5 20:25:40 10° S 20:29:13 64° E 20:32:45 10° NNE
OBJECT-B 3.7 20:27:42 10° WSW 20:29:26 14° W 20:31:10 10° WNW
Cosmos 773 Rocket 4.1 20:26:51 10° NNW 20:32:12 76° ENE 20:37:01 13° SSE
BREEZE M DEB (TANK) 2.4 20:26:55 10° W 20:32:14 48° SSW 20:34:07 15° ESE
Cosmos 1437 Rocket 3.5 20:29:26 10° SSW 20:33:15 57° WNW 20:37:11 10° N
Resurs 01 Rocket 2.6 20:31:23 10° S 20:35:40 47° W 20:39:59 10° NNW
Sich 1 3.9 20:33:14 10° NNW 20:37:25 49° W 20:41:36 10° SSW
COSMOS 2406 3.4 20:33:11 10° NNW 20:38:50 64° NE 20:43:43 14° SE
Spot 2 Rocket 3.5 20:34:12 10° SSE 20:39:10 82° ENE 20:44:15 10° NNW
SJ 16-02 3.1 20:38:19 13° ESE 20:40:06 16° E 20:42:50 10° ENE
Cosmos 2082 Rocket 3.0 20:36:12 10° NNW 20:41:32 41° NE 20:46:28 12° ESE
USA 306 2.9 20:38:36 10° WNW 20:42:53 90° S 20:47:01 11° ESE
CZ-4C R/B 3.0 20:37:06 10° NW 20:44:02 88° NE 20:51:18 14° SE
Cosmos 1500 3.2 20:40:26 10° N 20:44:12 67° ENE 20:47:10 15° SSE
Gbstr 26 Del rocket 4.3 20:39:05 10° WSW 20:46:57 80° S 20:53:38 10° E
Cosmos 1782 2.8 20:43:48 10° S 20:47:47 71° E 20:51:47 10° NNE
ERS-1 Rocket 3.0 20:50:52 15° SSE 20:55:06 76° ENE 21:00:09 10° NNW
H-2A R/B 4.5 20:51:55 10° NE 20:55:37 29° E 20:57:49 18° SE
SPOT 5 3.0 20:52:52 15° SSE 20:57:05 78° ENE 21:02:23 10° NNW
Cosmos 1503 Rocket 4.0 20:52:37 10° SSW 20:57:48 88° ESE 21:03:04 10° NNE
Meteor 1-11 Rocket 4.4 20:52:34 10° N 20:58:21 46° ENE 21:02:44 17° SE
ERBS 3.6 20:56:07 10° WNW 20:59:16 39° N 21:02:25 10° ENE
USA 290 4.4 20:57:29 10° NW 21:00:01 21° WSW 21:02:29 10° SSW
SOZ 4.3 20:58:03 10° WSW 21:00:24 52° SSE 21:02:49 10° E
Cosmos 1271 Rocket 4.0 21:00:22 19° SE 21:02:11 27° E 21:05:35 10° NE
Cosmos 1151 Rocket 3.1 20:58:54 10° SSW 21:03:15 82° W 21:07:40 10° N
Cosmos 1777 Rocket 4.3 20:58:39 11° S 21:03:27 46° ESE 21:08:24 10° NE
CREW DRAGON DEMO-1 DEB 2.6 21:00:57 10° W 21:03:33 54° S 21:04:38 29° SE
Terra 1.9 21:02:23 18° SSE 21:05:53 68° ENE 21:10:37 10° N
USA 307 2.8 21:03:55 10° WNW 21:08:12 79° SSW 21:11:25 17° ESE
Cosmos 2278 Rocket 2.8 21:05:44 14° S 21:10:00 38° ESE 21:15:11 10° NE
CZ-2C R/B 4.2 21:06:21 10° N 21:10:45 61° WNW 21:15:12 10° SSW
Cosmos 1340 Rocket 4.4 21:08:30 10° N 21:11:51 24° ENE 21:14:05 16° ESE
CZ-4B DEB 4.2 21:16:05 27° SSE 21:17:43 79° ENE 21:20:58 10° NNW
Cosmos 1544 4.5 21:16:20 10° N 21:19:24 25° ENE 21:20:56 19° ESE
X-37B 2.7 21:18:38 10° SW 21:20:09 14° SSW 21:20:09 14° SSW
Cosmos 1515 Rocket 3.5 21:17:35 17° S 21:20:59 73° E 21:25:23 10° NNE
Cosmos 1869 Rocket 4.0 21:17:22 10° N 21:21:35 46° ENE 21:23:54 23° SE
USA 308 2.9 21:17:23 10° WNW 21:21:40 71° SSW 21:24:24 22° ESE
Cosmos 1536 3.6 21:17:58 10° N 21:21:49 39° ENE 21:23:48 23° SE
Cosmos 1844 Rocket 3.7 21:16:57 10° SW 21:22:20 48° NW 21:27:47 10° NNE
Cosmos 2084 3.7 21:18:30 10° SSW 21:22:27 44° SE 21:26:32 10° ENE
ARIANE 5 R/B 3.5 21:20:39 13° SSW 21:24:17 42° W 21:28:26 10° NNW
JB-3 4.4 21:20:33 10° N 21:24:30 77° WNW 21:27:56 13° SSW
Meteor 1-10 Rocket 4.3 21:22:59 19° S 21:26:58 58° E 21:32:31 10° NNE
Cosmos 1437 3.0 21:25:46 16° SSW 21:27:49 54° WNW 21:30:38 10° N
Cosmos 2154 Rocket 4.2 21:22:28 10° N 21:28:48 65° ENE 21:33:03 22° SSE
Cosmos 1354 Rocket 4.4 21:23:59 10° SW 21:29:11 64° WNW 21:34:27 10° NNE
Cosmos 1943 Rocket 4.1 21:30:26 12° ESE 21:31:25 12° E 21:33:30 10° ENE
Cosmos 1812 2.8 21:31:32 18° SSW 21:34:20 78° WNW 21:38:14 10° N
Cosmos 2184 Rocket 4.0 21:30:35 10° NNW 21:36:52 84° W 21:41:19 20° S
Cosmos 44 4.2 21:32:49 10° NW 21:38:11 52° NE 21:42:24 16° ESE
ALOS 2 4.3 21:38:42 14° ESE 21:41:13 23° ENE 21:44:40 10° N
NOSS 3-4 (A) 3.8 21:34:56 10° NW 21:41:46 81° SW 21:47:02 22° SE
NOSS 3-4 (C) 3.8 21:35:02 10° NW 21:41:52 82° SW 21:47:09 22° SE
ATLAS 5 CENTAUR R/B 3.8 21:38:31 10° WNW 21:43:05 25° WSW 21:47:13 14° SSW
Cosmos 2074 Rocket 4.2 21:38:31 10° NNW 21:44:49 73° W 21:49:23 20° S
Cosmos 1666 3.5 21:46:40 10° NNW 21:50:15 44° W 21:52:11 23° SSW
Cosmos 2112 Rocket 4.3 21:45:25 10° NNW 21:50:44 60° ENE 21:53:50 25° SE
Cosmos 1933 Rocket 4.4 21:46:57 10° NNW 21:51:06 45° W 21:53:49 19° SSW
Cosmos 1833 Rocket 3.4 21:46:56 10° NW 21:52:19 46° WSW 21:55:42 22° S
SL-24 R/B - RUBIN 2 4.3 21:47:25 10° NW 21:53:11 64° NE 21:56:38 21° ESE
NOSS 3-3 (A) 3.9 21:47:35 10° SW 21:53:29 86° SE 22:00:22 10° NE
NOSS 3-3 (C) 3.9 21:47:41 10° SW 21:53:36 86° SE 22:00:28 10° NE
Meteor 2-12 Rocket 4.5 21:49:05 10° NNW 21:55:11 80° W 21:59:02 24° S
ATLAS 2AS CENTAUR R/B 2.9 21:47:55 10° NW 21:55:30 83° NE 22:00:32 21° SE
Cosmos 1743 3.2 21:51:49 10° N 21:55:33 47° ENE 21:56:52 33° SE
Nadezhda 1 Rocket 4.0 21:51:52 22° S 21:56:03 72° E 22:02:17 10° NNE
BREEZE-M DEB (TANK) 3.6 21:57:33 10° WSW 21:57:58 14° WSW 21:57:58 14° WSW
USA 215 3.3 21:55:30 10° ESE 22:02:03 81° NNE 22:08:37 10° WNW
BREEZE-M DEB (TANK) 2.9 21:55:08 10° W 22:02:42 83° S 22:04:40 18° E
USA 305 3.3 21:59:29 10° WNW 22:03:34 45° SSW 22:04:41 36° S
Iridium 4 Rocket 4.3 22:01:47 15° SSW 22:06:29 57° W 22:12:20 10° N
Cosmos 158 Rocket 4.3 22:08:31 10° NW 22:13:14 50° WSW 22:15:28 28° SSW
Cosmos 1733 Rocket 3.4 22:10:11 10° N 22:14:28 54° ENE 22:16:02 34° SE
SJ 16-02 1.5 22:15:15 22° SSW 22:18:06 75° WNW 22:22:34 10° NNE
Cosmos 1680 Rocket 3.5 22:13:37 10° NNW 22:18:58 79° WSW 22:21:27 33° SSE
Cosmos 2341 Rocket 4.1 22:13:11 10° N 22:19:38 78° ENE 22:23:08 29° SSE
Cosmos 2228 Rocket 3.3 22:17:34 26° SSW 22:19:57 68° WNW 22:24:26 10° N
Cosmos 2366 rocket 4.3 22:14:44 10° N 22:20:48 55° ENE 22:24:07 27° SE
Meteor 1-27 Rocket 3.8 22:18:37 24° SSW 22:22:17 87° WNW 22:28:15 10° NNE
USA 306 3.5 22:18:40 10° W 22:22:36 36° SW 22:23:05 35° SSW
Cosmos 1818 3.8 22:18:47 10° NW 22:24:18 71° NE 22:27:40 24° ESE
Cosmos 1937 Rocket 4.2 22:24:06 30° SE 22:25:28 35° ESE 22:30:08 10° NE
Cosmos 2082 Rocket 2.7 22:20:22 10° NW 22:25:45 47° WSW 22:28:19 28° SSW
CZ-4C R/B 4.0 22:25:58 10° WNW 22:32:18 33° WSW 22:36:28 21° SSW
Gbstr 26 Del rocket 4.0 22:26:52 10° W 22:34:17 75° SSW 22:40:00 12° ESE
ERBS 2.7 22:32:27 10° WNW 22:35:44 60° NNE 22:37:05 31° E
Cosmos 1271 Rocket 4.2 22:35:27 17° SW 22:38:03 35° WNW 22:41:46 10° N
Cosmos 2218 Rocket 4.1 22:32:35 10° N 22:38:52 73° ENE 22:42:06 31° SSE
Meteor 1-19 Rocket 4.4 22:40:49 34° SSE 22:42:52 52° E 22:48:06 10° NNE
Terra 3.8 22:41:15 12° SW 22:44:07 20° W 22:47:36 10° NW
Cosmos 489 Rocket 4.5 22:39:48 10° NNW 22:46:05 81° ENE 22:49:22 30° SSE
Okean 1 3.3 22:46:34 50° SSE 22:47:26 67° E 22:51:25 10° NNE
USA 307 4.0 22:44:09 10° W 22:47:31 28° SW 22:47:31 28° SW
Cosmos 1340 Rocket 3.6 22:44:36 10° NNW 22:48:29 43° W 22:49:40 33° SW
Cosmos 2278 Rocket 3.0 22:48:29 10° SW 22:53:59 50° NW 22:59:32 10° NNE
Cosmos 1544 4.4 22:51:13 10° NNW 22:54:23 29° W 22:55:12 27° WSW
Spot 4 4.2 22:53:27 35° SSW 22:55:16 57° W 23:00:05 10° NNW
Cosmos 1515 3.6 22:55:28 55° SSW 22:56:15 85° WNW 23:00:03 10° N
Cosmos 1862 Rocket 3.5 22:57:00 47° S 22:58:10 75° E 23:02:30 10° NNE
Cosmos 1898 Rocket 3.5 22:57:38 34° SSW 23:00:03 83° ESE 23:05:25 10° NNE
USA 308 4.4 22:57:44 10° W 23:00:30 23° SW 23:00:30 23° SW
MTI 4.3 22:58:52 10° NNE 23:01:27 44° ENE 23:01:27 44° ENE
Cosmos 2369 Rocket 3.1 23:03:27 28° SE 23:04:53 32° ESE 23:09:51 10° NE
RESURS DK-1 3.4 23:03:40 10° NNW 23:07:39 42° NE 23:09:53 22° ESE
Meteor 2-9 Rocket 4.3 23:02:18 10° NNW 23:08:08 71° W 23:10:35 35° S
SL-8 Rocket 4.2 23:02:14 10° NNW 23:08:29 65° W 23:11:34 31° SSW
Gblst 52 Del rocket 4.4 23:01:59 10° W 23:08:51 69° SSW 23:14:42 11° ESE
COBE Rocket 3.9 23:07:05 39° SSE 23:09:00 90° N 23:14:11 10° NNW
Cosmos 1975 2.7 23:07:24 10° NNW 23:11:24 77° W 23:12:12 55° S
SL-27 R/B 4.0 23:09:16 10° N 23:12:10 27° NE 23:13:17 22° E
Cosmos 2084 Rocket 3.5 23:08:21 10° NW 23:12:33 60° SW 23:13:20 50° S
Cosmos 1943 Rocket 2.2 23:11:55 37° S 23:14:03 63° ESE 23:19:37 10° NE
SAR-Lupe-2 3.4 23:10:33 10° NNE 23:14:08 73° ESE 23:14:31 65° SSE
SL-08 R/B 4.5 23:10:23 10° N 23:16:36 80° ENE 23:19:37 33° SSE
ALOS 2 2.9 23:16:05 42° SSW 23:17:14 56° W 23:21:35 10° NNW
Cosmos 44 4.0 23:14:19 10° NW 23:19:28 43° WSW 23:20:48 36° SSW
DNEPR-1 R/B 4.2 23:19:57 38° S 23:21:47 56° SE 23:26:34 10° NE
Meteor 2-4 Rocket 3.8 23:20:31 36° SSE 23:22:52 66° E 23:28:27 10° NNE
Cosmos 990 Rocket 4.4 23:20:02 23° SW 23:23:11 59° WNW 23:28:25 10° NNE
EO 1 Del DPAF 4.4 23:23:59 10° NE 23:27:15 28° E 23:27:38 27° ESE
Okean 1-7 3.2 23:30:15 45° SE 23:31:13 58° E 23:35:25 10° NNE
Cosmos 372 Rocket 3.9 23:30:36 41° S 23:32:16 68° ESE 23:37:21 10° NNE
ATLAS CENTAUR R/B 3.6 23:33:01 11° E 23:33:01 11° E 23:33:23 10° E
Helios 1A 4.5 23:31:39 19° ESE 23:33:51 30° ENE 23:37:31 10° N
Meteor 1-18 Rocket 4.3 23:33:04 33° SSW 23:35:42 72° WNW 23:41:20 10° N
SeaSat 1 2.8 23:32:10 10° NE 23:36:59 49° ESE 23:38:19 38° SSE
Cosmos 494 Rocket 4.2 23:32:22 10° NNW 23:37:35 68° ENE 23:40:13 29° SE
Cosmos 1656 Rocket 4.4 23:39:04 31° SE 23:40:40 38° ESE 23:45:44 10° NE
Cosmos 2242 Rocket 3.5 23:40:22 48° S 23:41:32 80° E 23:46:02 10° NNE
Cosmos 1833 4.2 23:38:39 10° NNW 23:44:27 86° ENE 23:47:33 29° SSE
USA 215 3.4 23:42:20 30° SSE 23:45:23 50° SW 23:51:44 10° WNW
ATLAS 2AS CENTAUR R/B 3.6 23:39:32 10° NW 23:45:47 31° WSW 23:47:56 26° SW
Cosmos 2297 4.0 23:45:51 24° SW 23:49:21 64° NW 23:55:01 10° NNE
CZ-2D R/B 4.3 23:47:27 10° NE 23:50:37 15° E 23:53:44 10° ESE
Cosmos 2297 Rocket 4.4 23:46:07 10° NNW 23:50:43 24° NE 23:55:18 10° E
